Regional Weather Roundup
Issued by NWS Glasgow, MT

Home | Current Version | Previous Version | Text Only | Print | Product List | Glossary On
Versions: 1 2 3 4 5 6 7 8 9 10 11 12 13 14 15 16 17 18 19 20 21 22 23 24 25 26 27
000
ASUS45 KGGW 181615
RWRGGW
HOURLY WEATHER ROUNDUP FOR NORTHEAST MONTANA
NATIONAL WEATHER SERVICE GLASGOW MONTANA
1000 AM MDT FRI APR 18 2014

NOTE: "FAIR" INDICATES FEW OR NO CLOUDS BELOW 12,000 FEET WITH NO
SIGNIFICANT WEATHER AND/OR OBSTRUCTIONS TO VISISBILITY.

NORTHEAST MONTANA


CITY           SKY/WX    TMP DP  RH WIND       PRES   REMARKS
GLASGOW        CLOUDY    42  31  64 E21       29.64S
PLENTYWOOD       N/A     39  29  67 SE14G26     N/A
WOLF POINT     CLOUDY    45  28  51 E20G25    29.69F
JORDAN           N/A     53  38  56 SW5       29.63R
WINNETT          N/A     47  36  65 SW2         N/A
SIDNEY         PTSUNNY   45  28  53 SE14      29.81F
GLENDIVE       CLOUDY    46  30  53 SE10      29.76F

FORT PECK REPORTS


CITY           SKY/WX    TMP DP  RH WIND       PRES   REMARKS
FORT PECK        N/A     43  32  65 NE12        N/A
THE PINES        N/A     44  32  62 NE2         N/A

SOUTHEAST MONTANA


CITY           SKY/WX    TMP DP  RH WIND       PRES   REMARKS
BILLINGS       CLOUDY    59  38  45 NW17      29.66F
MILES CITY     PTSUNNY   53  36  52 SE20G26   29.64F
BAKER          MOSUNNY   48  34  58 SE24G30   29.74F
LIVINGSTON     RAIN      42  38  85 SW10      29.79R FOG

CENTRAL MONTANA


CITY           SKY/WX    TMP DP  RH WIND       PRES   REMARKS
HAVRE          CLOUDY    52  45  77 SW13      29.62R
LEWISTOWN      CLOUDY    49  36  61 W8        29.69R
GREAT FALLS    CLOUDY    48  36  63 SW13      29.68R
CUT BANK       MOSUNNY   50  24  36 W33       29.65R
HELENA         CLOUDY    49  34  56 W16       29.74S
BUTTE          CLOUDY    41  36  82 VRB3      29.78F
BOZEMAN        LGT RAIN  43  39  86 SE15      29.78S

WESTERN MONTANA


CITY           SKY/WX    TMP DP  RH WIND       PRES   REMARKS
MISSOULA       CLOUDY    45  30  55 NW10      29.87S
KALISPELL      NOT AVBL

NORTH DAKOTA


CITY           SKY/WX    TMP DP  RH WIND       PRES   REMARKS
WILLISTON      CLOUDY    43  26  51 SE20G26   29.83F
DICKINSON      SUNNY     46  29  51 SE23      29.80F
MINOT          CLOUDY    39  22  50 E25G33    29.99F
BISMARCK       MOSUNNY   47  26  44 SE24G30   29.96F

SOUTHERN SASKATCHEWAN


CITY           SKY/WX    TMP DP  RH WIND       PRES   REMARKS
REGINA         FLURRIES  34  25  69 SE30G41   29.85F
ESTEVAN        CLOUDY    36  25  64 SE17G25   29.90F
SWIFT CURRENT  LGT RAIN  39  37  93 SE15G21   29.64S




USA.gov is the U.S. government's official web portal to all federal, state and local government web resources and services.